User: anonymous   Login
Location: Caltech
(34.1382°N, 118.1253°W)
Time: 00:13:37
(UTC-08:00)
Language:

Cosmos 1833 Rocket - Orbit

View from above orbital plane
View from above orbital plane
View from above satellite
View from above satellite

Ground track
Ground track

The orbit data is extracted from the following two-line orbital elements,

1 17590U 87027B   18017.48880399 +.00000092 +00000-0 +69967-4 0  9994
2 17590 071.0032 058.7080 0006444 316.4194 043.6420 14.16754876594243
Epoch (UTC): 17 January 2018 11:43:52
Eccentricity: 0.0006444
inclination: 71.0032°
perigee height: 832 km
apogee height: 841 km
right ascension of ascending node: 58.7080°
argument of perigee: 316.4194°
revolutions per day: 14.16754876
mean anomaly at epoch: 43.6420°
orbit number at epoch: 59424

The dashed part of the orbit path shows where the satellite is in the earth's shadow,  

DLR